Regional Weather Roundup
Issued by NWS

Home | Current Version | Previous Version | Text Only | Print | Product List | Glossary On
Versions: 1 2 3 4 5 6 7 8 9 10 11 12 13 14 15 16 17 18 19 20 21 22 23 24 25 26 27 28 29 30 31 32 33 34 35 36 37 38 39 40 41 42 43 44 45 46 47 48 49 50
000
ASUS43 KMPX 220101
RWRMN
WEATHER ROUNDUP FOR MINNESOTA
NATIONAL WEATHER SERVICE TWIN CITIES/CHANHASSEN MN
700 PM CST SAT JAN 21 2017


NOTE: "FAIR" INDICATES FEW OR NO CLOUDS BELOW 12,000 FEET WITH NO
SIGNIFICANT WEATHER AND/OR OBSTRUCTIONS TO VISIBILITY. N/A MEANS
CURRENT SKY AND/OR WEATHER CONDITIONS ARE NOT AVAILABLE.

MNZ060>063-068>070-220200-
   Twin Cities Metro

CITY           SKY/WX    TMP DP  RH WIND       PRES   REMARKS
TWIN CITIES    FOG       37  35  92 CALM      29.48R VSB 3/4
ST PAUL        FOG       35  35 100 CALM      29.49S VSB 1
CRYSTAL        FOG       36  34  92 N3        29.47R VSB 1/2
LAKEVILLE      FOG       34  34 100 CALM      29.48R VSB 1/4
EDEN PRAIRIE   FOG       37  36  96 CALM      29.47R VSB 1/2
SOUTH ST PAUL  CLOUDY    37  36  99 CALM      29.48R FOG
LAKE ELMO      FOG       34  34 100 CALM      29.49R VSB 1/4
$$
MNZ001>005-007-008-013>017-022>024-027-028-220200-
   Northwest Minnesota

CITY           SKY/WX    TMP DP  RH WIND       PRES   REMARKS
BEMIDJI        CLOUDY    33  33 100 E5        29.51R FOG     WCI  29
HALLOCK        DRIZZLE   36  34  93 CALM      29.52R
ROSEAU         FOG       34  30  86 NE5       29.53R VSB 1/4 WCI  30
WARROAD        CLOUDY    34  30  86 CALM      29.54R
THIEF RVR FALL CLOUDY    34  33  96 E5        29.52R WCI  30
CROOKSTON      MIX PCPN  36  34  93 E5        29.52R
FOSSTON        CLOUDY    32  32 100 E3        29.51R
DETROIT LAKES  DRIZZLE   36  34  93 CALM      29.51R
MOORHEAD       CLOUDY    34  34 100 CALM      29.52R
PARK RAPIDS    FOG       35  33  92 CALM      29.49R VSB 1/2
MAHNOMEN       CLOUDY    33  32  96 E3        29.50R
$$
MNZ006-009>011-018-025>026-220200-
   North Central Minnesota

CITY           SKY/WX    TMP DP  RH WIND       PRES   REMARKS
BAUDETTE       CLOUDY    35  33  92 NE3       29.52S
FLAG ISLAND    CLOUDY    34  34 100 CALM      29.53S
INTL FALLS     CLOUDY    35  33  92 NE5       29.53R WCI  31
WASKISH        CLOUDY    36  34  93 CALM      29.53R
BIG FORK       CLOUDY    36  34  93 CALM      29.52R FOG
LONGVILLE      FOG       36  34  93 CALM      29.50R VSB 3/4
GRAND RAPIDS   FOG       35  34  96 CALM      29.53R VSB 1/2
CRANE LAKE     CLOUDY    34  32  93 CALM      29.55R
ORR            CLOUDY    36  32  87 CALM      29.50R
COOK           CLOUDY    34  34 100 CALM      29.52R
WALKER         FOG       33  33  99 CALM      29.51R VSB 1/4
$$
MNZ012-019>021-037-220200-
   Northeast Minnesota

CITY           SKY/WX    TMP DP  RH WIND       PRES   REMARKS
DULUTH         DRZL/FOG  34  34 100 E8        29.49R VSB 1   WCI  27
ELY            CLOUDY    34  34 100 CALM      29.51R
HIBBING        CLOUDY    34  34 100 CALM      29.51R
EVELETH        CLOUDY    36  35  99 CALM      29.52R
DULUTH HARBOR  CLOUDY    34  34 100 CALM      29.52R FOG
TWO HARBORS    CLOUDY    37  34  87 NE7       29.49R HAZE
SILVER BAY     DRIZZLE   36  36 100 NE9       29.50R
GRAND MARAIS     N/A     38  34  85 NE7       29.53S
G MARAIS ARPRT DRIZZLE   32  28  86 N8        29.51S WCI  25
$$
MNZ029>031-032-039>041-046>048-054>057-064-220200-
   West Central Minnesota

CITY           SKY/WX    TMP DP  RH WIND       PRES   REMARKS
FERGUS FALLS   DRIZZLE   36  36 100 CALM      29.54R
WHEATON        FOG       43  43 100 CALM      29.51S VSB 1/2
MORRIS         FOG       34  34 100 CALM      29.48R VSB 1/4
ALEXANDRIA     FOG       34  34 100 CALM      29.49R VSB 1/2
ELBOW LAKE     CLOUDY    34  34 100 CALM      29.49S FOG
WADENA         LGT RAIN  34  34 100 CALM      29.49R VSB 1/4
GLENWOOD       SNOW      34  34 100 CALM      29.49R VSB 1/4
APPLETON       FOG       34  34 100 CALM      29.49R VSB 1/2
BENSON           N/A     36  34  93 CALM      29.50R
ORTONVILLE     FOG       34  30  86 CALM      29.49R VSB 1/4
MADISON        FOG       36  36 100 CALM      29.49R VSB 1/4
WILLMAR        CLOUDY    36  36 100 CALM      29.49R FOG
$$
MNZ033>034-036-042>043-049>051-058-059-220200-
   Central Minnesota

CITY           SKY/WX    TMP DP  RH WIND       PRES   REMARKS
ST CLOUD       FOG       34  34 100 CALM      29.48R VSB 1/4
SAUK CENTRE    FOG       33  33 100 CALM      29.49R VSB 1/4
PAYNESVILLE    FOG       33  34 100 NE3       29.48R VSB 1/4
AITKIN         CLOUDY    37  34  87 NE6       29.48S
PINE RIVER     FOG       36  36 100 CALM      29.54R VSB 1/2
BRAINERD       FOG       35  35 100 NE3       29.50R VSB 1/2
STAPLES        FOG       34  34 100 CALM      29.50R VSB 1/2
LONG PRAIRIE   SNOW      34  34 100 NE3       29.49R VSB 1/4
LITTLE FALLS   FOG       34  32  93 CALM      29.50R VSB 1/2
LITCHFIELD     FOG       36  36 100 CALM      29.48R VSB 1/4
BUFFALO        FOG       35  34  96 CALM      29.49R VSB 1/4
MAPLE LAKE     FOG       35  35 100 NW3       29.49R VSB 1/4
HUTCHINSON     FOG       35  36 100 NE3       29.49R VSB 1/2
$$
MNZ037-044-045-052-053-220200-
   East Central Minnesota

CITY           SKY/WX    TMP DP  RH WIND       PRES   REMARKS
PRINCETON      FOG       36  36 100 NW3       29.49R VSB 1/2
MORA           CLOUDY    34  34 100 CALM      29.50S FOG
CAMBRIDGE      FOG       37  37 100 CALM      29.46S VSB 1
RUSH CITY      CLOUDY    36  34  93 VRB3      29.48R FOG
MOOSE LAKE     DRIZZLE   34  32  93 NE5       29.48F WCI  30
HINCKLEY       CLOUDY    36  36 100 N5        29.49R FOG
CLOQUET        CLOUDY    34  34 100 CALM      29.50R FOG
MCGREGOR       CLOUDY    34  34 100 CALM      29.51R
$$
MNZ071>073-080-081-089-090-097-098-220200-
   Southwest Minnesota

CITY           SKY/WX    TMP DP  RH WIND       PRES   REMARKS
MONTEVIDEO     FOG       34  34 100 CALM      29.49R VSB 1/2
GRANITE FALLS  FOG       35  35  99 CALM      29.49R VSB 1/4
CANBY          FOG       34  34 100 CALM      29.49R VSB 1/4
MARSHALL       CLOUDY    34  34 100 NW7       29.48R WCI  28
REDWOOD FALLS  FOG       35  34  96 CALM      29.47R VSB 1/4
OLIVIA         FOG       34  34 100 CALM      29.47R VSB 1/2
PIPESTONE      CLOUDY    32  32 100 NW9       29.47R FOG     WCI  24
WINDOM         CLOUDY    34  34 100 SW10      29.47R FOG     WCI  26
WORTHINGTON    CLOUDY    31  30  96 W13       29.49R FOG     WCI  21
JACKSON        CLOUDY    32  32 100 W10       29.48R FOG     WCI  24
TRACY          CLOUDY    35  34  98 W6        29.47R WCI  30
SLAYTON        CLOUDY    31  31 100 W9        29.46F FOG     WCI  23
$$
MNZ065>067-074>077-082>085-091>093-220200-
   South Central Minnesota

CITY           SKY/WX    TMP DP  RH WIND       PRES   REMARKS
MANKATO        FOG       35  34  96 CALM      29.48R VSB 1/4
NEW ULM        FOG       36  36 100 CALM      29.47R VSB 1/4
ST JAMES       CLOUDY    36  36 100 SW7       29.49R FOG
FAIRMONT       CLOUDY    34  32  92 W10       29.49R WCI  26
GLENCOE        CLOUDY    36  36 100 CALM      29.48R FOG
OWATONNA       FOG       36  34  93 CALM      29.48R VSB 1/4
WASECA         FOG       34  34 100 CALM      29.49R VSB 1/4
ALBERT LEA     FOG       36  36 100 CALM      29.48R VSB 1/2
$$
MNZ078>079-086>088-094>096-220200-
   Southeast Minnesota

CITY           SKY/WX    TMP DP  RH WIND       PRES   REMARKS
ROCHESTER      CLOUDY    34  34 100 SW8       29.48R FOG     WCI  27
RED WING       FOG       36  34  93 CALM      29.48R VSB 1/4
STANTON        FOG       35  33  94 CALM      29.47R VSB 1/4
DODGE CENTER   FOG       34  34 100 CALM      29.48R VSB 3/4
WINONA         CLOUDY    36  36 100 CALM      29.50R FOG
AUSTIN         FOG       36  36 100 CALM      29.48R VSB 1/2
PRESTON        FOG       35  34  97 SW7       29.50R VSB 1/2 WCI  29
$$
ABBREVIATIONS USED IN REMARKS
   TC - TEMPERATURES IN CELSIUS
  WCI - WIND CHILL INDEX
   HX - HEAT INDEX
  VSB - VISIBILITY
$$




USA.gov is the U.S. government's official web portal to all federal, state and local government web resources and services.